{"data":{"norad_id":55824,"epoch":"2026-05-24T15:08:00.820320Z","epoch_age_seconds":97061,"freshness":"FRESH","line1":"1 55824U 23029AE  26144.63056505  .00000130  00000+0  28877-3 0  9995","line2":"2 55824  87.9161 279.1817 0002199  88.3996 271.7389 13.20771288158030","mean_motion":13.20771288,"eccentricity":0.0002199,"inclination_deg":87.9161,"raan_deg":279.1817,"arg_perigee_deg":88.3996,"mean_anomaly_deg":271.7389,"bstar":0.00028877,"rev_number":15803,"period_min":109.02720350474,"perigee_km":1180.1129510977,"apogee_km":1183.4378005606,"semimajor_km":7559.9123758291,"source":"CELESTRAK","updated_at":"2026-05-25T13:38:22.696404Z"}}